Location: Ripley
(48.3812°N, 115.4473°W)
Time: 04:58:15
(UTC+00:00)

O/OREOS (USA 219) - Pass Details

Date: 28 June 2022
Orbit: 621 x 646 km, 72.0° (Epoch: 22 May)

Event Time Altitude Azimuth Distance (km) Brightness Sun altitude
Rises 09:24:35 0° 326° (NW) 2,963 ? -15.0°
Reaches altitude 10° 09:27:02 10° 317° (NW) 2,051 ? -14.8°
Maximum altitude 09:31:08 32° 254° (WSW) 1,101 ? -14.5°
Enters shadow 09:33:02 23° 212° (SSW) 1,359 ? -14.4°
